Regional Weather Roundup
Issued by NWS

Home | Current Version | Previous Version | Graphics & Text | Print | Product List | Glossary On
Versions: 1 2 3 4 5 6 7 8 9 10 11 12 13 14 15 16 17 18 19 20 21 22 23 24 25 26 27 28 29 30 31 32 33 34 35 36 37 38 39 40 41 42 43 44 45 46 47 48 49 50
000
ASUS43 KBIS 260710
RWRND

NORTH DAKOTA REGIONAL WEATHER ROUNDUP
NATIONAL WEATHER SERVICE BISMARCK ND
200 AM CDT SAT JUL 26 2014

NOTE: "FAIR" INDICATES FEW OR NO CLOUDS BELOW 12,000 FEET WITH NO
SIGNIFICANT WEATHER AND/OR OBSTRUCTIONS TO VISIBILITY.


NDZ001>003-009>011-017-260800-
NORTHWEST NORTH DAKOTA

CITY           SKY/WX    TMP DP  RH WIND       PRES   REMARKS
WILLISTON      CLEAR     57  51  80 S8        29.84F
MINOT          CLEAR     61  52  72 NW10      29.79R
MINOT AFB      CLEAR     58  56  95 W7        29.78R
$$

NDZ018>021-031>035-040>046-260800-
SOUTHWEST NORTH DAKOTA

CITY           SKY/WX    TMP DP  RH WIND       PRES   REMARKS
BISMARCK       CLEAR     63  53  70 CALM      29.81S
DICKINSON      CLEAR     61  50  67 W5        29.84F
GARRISON         N/A     59  54  83 S5        29.78F
HETTINGER ARPT CLEAR     57  48  72 NW7       29.88R
$$

NDZ004>008-012>016-024-026-027-054-260800-
NORTHEAST NORTH DAKOTA

CITY           SKY/WX    TMP DP  RH WIND       PRES   REMARKS
GRAND FORKS    CLEAR     61  56  83 SW8       29.77S
GRND FRKS AFB  CLEAR     60  59  97 S5        29.78F
DEVILS LAKE    CLEAR     64  54  68 S6        29.77F
$$

NDZ022-023-025-028>030-036>039-047>053-260800-
SOUTHEAST NORTH DAKOTA

CITY           SKY/WX    TMP DP  RH WIND       PRES   REMARKS
FARGO          CLEAR     59  55  87 SW3       29.80S
JAMESTOWN      CLEAR     59  56  89 S3        29.82S
$$




USA.gov is the U.S. government's official web portal to all federal, state and local government web resources and services.